Simultaneous Nadir Overpasses (SNOs) Predictions

Prediction of SNOs between GOES-16 and NOAA-20 Satellite Orbit:

Table of predicted SNOs for the next 14.0 days since TLE Epoch: 8/3/2024
Index Date Time (GOES-16) GOES-16 Lat,Lon NOAA-20 Lat,Lon Distance(km) Time Diff (sec)
1 08/03/2024 18:41:19 -0.05, -75.20 -0.88, -78.79 409.90 80
2 08/04/2024 18:19:54 -0.05, -75.21 0.15, -74.27 106.90 80
3 08/06/2024 06:44:22 0.05, -75.22 1.01, -79.54 492.90 80
4 08/07/2024 06:22:57 0.05, -75.23 -0.03, -75.02 24.59 80
5 08/09/2024 18:26:08 -0.04, -75.26 -0.19, -75.79 60.47 80
6 08/10/2024 18:07:24 -0.04, -75.28 0.85, -71.26 457.47 80
7 08/12/2024 06:31:51 0.04, -75.30 0.30, -76.54 141.16 80
8 08/13/2024 06:10:25 0.04, -75.31 -0.69, -72.00 376.76 80
9 08/14/2024 18:32:22 -0.03, -75.34 -0.49, -77.31 225.28 80
10 08/15/2024 18:16:17 -0.03, -75.35 0.56, -72.79 292.71 80
